QPF
0.00 0.00 0.00 0.00 0.00 0.00 0.00 0.00 0.00 0.00 0.00 0.00 0.00 0.00 0.01 0.01 0.00 0.00 0.00 0.00 0.01 0.02 0.02 0.02 0.02 0.01 0.01 0.01 0.01 0.02 0.03 0.05 0.05 0.05 0.05 0.05 0.06 0.08 0.08 0.07 0.05 0.06 0.07 0.07
0.00 0.00 0.00 0.00 0.00 0.00 0.00 0.00 0.00 0.00 0.00 0.01 0.01 0.01 0.01 0.01 0.00 0.00 0.00 0.01 0.02 0.02 0.03 0.03 0.02 0.02 0.02 0.02 0.02 0.02 0.03 0.04 0.06 0.05 0.05 0.05 0.06 0.06 0.07 0.06 0.06 0.07 0.06 0.06
0.00 0.00 0.00 0.00 0.00 0.00 0.00 0.00 0.00 0.00 0.00 0.00 0.01 0.01 0.01 0.01 0.00 0.01 0.01 0.01 0.02 0.02 0.02 0.02 0.02 0.02 0.02 0.02 0.01 0.02 0.03 0.05 0.07 0.06 0.07 0.07 0.08 0.09 0.09 0.07 0.07 0.06 0.05 0.06
0.00 0.00 0.00 0.00 0.00 0.00 0.00 0.00 0.00 0.00 0.00 0.00 0.00 0.01 0.01 0.01 0.01 0.01 0.01 0.01 0.01 0.02 0.03 0.02 0.01 0.02 0.02 0.02 0.02 0.02 0.02 0.03 0.04 0.05 0.06 0.06 0.07 0.07 0.06 0.05 0.05 0.04 0.05 0.05
0.00 0.00 0.00 0.00 0.00 0.00 0.00 0.00 0.00 0.00 0.00 0.00 0.00 0.01 0.01 0.01 0.00 0.01 0.01 0.01 0.01 0.01 0.01 0.02 0.02 0.03 0.03 0.03 0.03 0.02 0.02 0.02 0.02 0.04 0.05 0.05 0.05 0.04 0.04 0.04 0.04 0.04 0.04 0.04
0.00 0.00 0.01 0.01 0.01 0.00 0.01 0.01 0.00 0.00 0.00 0.00 0.01 0.02 0.02 0.01 0.01 0.01 0.01 0.01 0.01 0.01 0.01 0.02 0.02 0.03 0.03 0.03 0.02 0.02 0.03 0.03 0.03 0.02 0.04 0.05 0.05 0.05 0.05 0.05 0.05 0.04 0.04 0.04
0.00 0.01 0.02 0.01 0.01 0.01 0.02 0.03 0.01 0.00 0.00 0.01 0.01 0.01 0.03 0.03 0.01 0.01 0.01 0.01 0.01 0.01 0.01 0.02 0.02 0.03 0.03 0.03 0.03 0.03 0.04 0.04 0.04 0.03 0.04 0.05 0.05 0.06 0.06 0.06 0.05 0.04 0.04 0.04
0.01 0.02 0.03 0.01 0.00 0.01 0.02 0.01 0.01 0.01 0.01 0.01 0.01 0.02 0.03 0.03 0.02 0.01 0.01 0.01 0.01 0.01 0.01 0.02 0.01 0.02 0.04 0.04 0.03 0.03 0.04 0.04 0.04 0.05 0.03 0.04 0.05 0.06 0.06 0.06 0.05 0.04 0.04 0.04
0.01 0.02 0.02 0.02 0.01 0.01 0.01 0.01 0.02 0.03 0.03 0.01 0.01 0.01 0.00 0.01 0.01 0.02 0.02 0.02 0.02 0.02 0.02 0.03 0.02 0.02 0.03 0.03 0.03 0.03 0.04 0.04 0.04 0.04 0.04 0.05 0.06 0.07 0.07 0.06 0.05 0.04 0.03 0.03
0.01 0.02 0.03 0.02 0.00 0.01 0.01 0.01 0.03 0.02 0.01 0.00 0.00 0.00 0.00 0.00 0.01 0.01 0.01 0.01 0.02 0.03 0.04 0.03 0.02 0.02 0.03 0.03 0.03 0.04 0.04 0.04 0.05 0.04 0.04 0.05 0.05 0.05 0.05 0.05 0.05 0.05 0.04 0.04
0.01 0.02 0.02 0.01 0.02 0.02 0.01 0.01 0.01 0.00 0.00 0.00 0.00 0.00 0.00 0.01 0.00 0.01 0.01 0.01 0.01 0.02 0.02 0.01 0.01 0.02 0.02 0.03 0.04 0.04 0.05 0.06 0.05 0.04 0.03 0.04 0.04 0.04 0.04 0.04 0.04 0.05 0.05 0.05
0.02 0.02 0.02 0.02 0.02 0.01 0.02 0.01 0.01 0.01 0.01 0.00 0.00 0.01 0.01 0.01 0.01 0.01 0.01 0.01 0.01 0.02 0.02 0.02 0.02 0.01 0.01 0.02 0.03 0.04 0.04 0.04 0.04 0.03 0.03 0.04 0.04 0.03 0.03 0.04 0.05 0.05 0.05 0.04
0.01 0.01 0.01 0.01 0.01 0.01 0.01 0.01 0.01 0.01 0.01 0.01 0.01 0.01 0.01 0.01 0.01 0.01 0.02 0.03 0.03 0.03 0.02 0.02 0.01 0.01 0.01 0.02 0.03 0.04 0.04 0.04 0.03 0.03 0.04 0.04 0.03 0.03 0.03 0.05 0.06 0.06 0.06 0.07
0.01 0.01 0.02 0.01 0.02 0.02 0.01 0.01 0.01 0.02 0.01 0.01 0.01 0.01 0.01 0.02 0.02 0.02 0.02 0.02 0.01 0.01 0.01 0.01 0.01 0.01 0.01 0.01 0.02 0.04 0.03 0.03 0.03 0.03 0.04 0.04 0.04 0.04 0.03 0.04 0.05 0.06 0.06 0.07
0.01 0.01 0.02 0.03 0.03 0.02 0.02 0.02 0.01 0.02 0.01 0.01 0.01 0.01 0.02 0.02 0.03 0.02 0.01 0.01 0.01 0.01 0.02 0.02 0.01 0.01 0.02 0.02 0.02 0.02 0.03 0.02 0.03 0.03 0.04 0.05 0.05 0.04 0.04 0.04 0.05 0.05 0.06 0.07
0.02 0.02 0.02 0.03 0.03 0.03 0.03 0.01 0.01 0.01 0.01 0.01 0.02 0.02 0.03 0.03 0.02 0.02 0.01 0.02 0.03 0.03 0.03 0.02 0.02 0.02 0.02 0.02 0.03 0.03 0.03 0.03 0.03 0.05 0.06 0.08 0.09 0.09 0.08 0.06 0.05 0.06 0.07 0.06
0.03 0.03 0.02 0.01 0.01 0.01 0.02 0.03 0.02 0.01 0.01 0.01 0.01 0.01 0.02 0.02 0.01 0.02 0.02 0.02 0.03 0.03 0.03 0.03 0.02 0.02 0.03 0.03 0.04 0.03 0.03 0.03 0.04 0.05 0.06 0.07 0.07 0.06 0.06 0.06 0.05 0.04 0.03 0.02
0.01 0.01 0.02 0.01 0.01 0.01 0.01 0.02 0.03 0.01 0.01 0.01 0.01 0.01 0.01 0.01 0.02 0.02 0.02 0.03 0.04 0.04 0.02 0.02 0.02 0.03 0.03 0.03 0.04 0.04 0.03 0.03 0.03 0.04 0.04 0.04 0.03 0.03 0.02 0.02 0.02 0.02 0.01 0.01
0.00 0.00 0.01 0.01 0.01 0.01 0.01 0.01 0.01 0.01 0.01 0.01 0.01 0.01 0.01 0.01 0.02 0.02 0.02 0.04 0.05 0.05 0.04 0.03 0.04 0.03 0.03 0.03 0.03 0.03 0.03 0.02 0.02 0.02 0.02 0.03 0.02 0.02 0.03 0.02 0.02 0.02 0.02 0.02
0.00 0.01 0.01 0.01 0.01 0.01 0.01 0.01 0.01 0.02 0.02 0.01 0.02 0.02 0.02 0.01 0.02 0.02 0.04 0.04 0.04 0.03 0.04 0.04 0.05 0.04 0.04 0.04 0.04 0.04 0.03 0.02 0.02 0.02 0.03 0.03 0.03 0.03 0.03 0.02 0.02 0.02 0.02 0.02
0.00 0.01 0.01 0.01 0.01 0.01 0.01 0.02 0.03 0.02 0.02 0.01 0.02 0.02 0.02 0.02 0.02 0.03 0.04 0.05 0.04 0.02 0.02 0.03 0.03 0.04 0.04 0.04 0.03 0.03 0.03 0.03 0.03 0.03 0.04 0.03 0.03 0.03 0.02 0.02 0.02 0.02 0.02 0.02
0.01 0.01 0.01 0.01 0.01 0.01 0.01 0.01 0.01 0.01 0.01 0.02 0.02 0.02 0.03 0.04 0.04 0.06 0.05 0.04 0.03 0.03 0.02 0.02 0.02 0.02 0.03 0.03 0.03 0.02 0.03 0.03 0.03 0.03 0.03 0.03 0.04 0.03 0.03 0.03 0.03 0.02 0.02 0.03
0.02 0.01 0.01 0.01 0.01 0.01 0.01 0.01 0.01 0.02 0.02 0.03 0.04 0.04 0.04 0.05 0.05 0.06 0.06 0.04 0.02 0.02 0.01 0.01 0.01 0.03 0.04 0.03 0.02 0.02 0.02 0.02 0.02 0.02 0.03 0.03 0.03 0.03 0.03 0.03 0.03 0.02 0.02 0.02
0.03 0.02 0.02 0.02 0.01 0.02 0.03 0.02 0.02 0.02 0.03 0.03 0.03 0.04 0.05 0.05 0.04 0.04 0.04 0.03 0.02 0.02 0.01 0.01 0.01 0.02 0.02 0.01 0.02 0.02 0.02 0.01 0.01 0.01 0.01 0.01 0.02 0.03 0.03 0.02 0.02 0.02 0.02 0.02
0.03 0.03 0.02 0.02 0.02 0.02 0.02 0.02 0.02 0.02 0.02 0.02 0.03 0.04 0.03 0.04 0.04 0.03 0.02 0.02 0.02 0.01 0.01 0.01 0.02 0.02 0.02 0.01 0.02 0.02 0.02 0.02 0.01 0.01 0.01 0.01 0.01 0.01 0.02 0.02 0.01 0.01 0.01 0.02
0.03 0.03 0.02 0.02 0.02 0.02 0.02 0.02 0.03 0.03 0.03 0.03 0.03 0.03 0.03 0.03 0.02 0.02 0.01 0.01 0.02 0.02 0.02 0.02 0.02 0.02 0.01 0.01 0.01 0.01 0.01 0.01 0.01 0.01 0.00 0.00 0.01 0.01 0.01 0.01 0.02 0.01 0.01 0.02
0.03 0.02 0.02 0.02 0.02 0.01 0.01 0.02 0.02 0.02 0.03 0.03 0.04 0.03 0.02 0.02 0.01 0.01 0.01 0.01 0.02 0.02 0.02 0.02 0.02 0.02 0.01 0.01 0.01 0.01 0.02 0.02 0.02 0.02 0.01 0.01 0.01 0.01 0.01 0.01 0.02 0.01 0.01 0.02
MSLP
1007.88 1008.09 1008.21 1008.29 1008.38 1008.49 1008.65 1008.83 1009.02 1009.17 1009.24 1009.21 1009.03 1008.72 1008.27 1007.72 1007.10 1006.45 1005.82 1005.25 1004.77 1004.41 1004.19 1004.12 1004.20 1004.41 1004.76 1005.21 1005.74 1006.32 1006.90 1007.47 1007.98 1008.42 1008.78 1009.04 1009.22 1009.34 1009.42 1009.49 1009.57 1009.68 1009.82 1010.01
1008.43 1008.61 1008.65 1008.61 1008.54 1008.50 1008.51 1008.59 1008.73 1008.90 1009.04 1009.11 1009.08 1008.90 1008.57 1008.09 1007.49 1006.81 1006.10 1005.41 1004.79 1004.28 1003.91 1003.70 1003.66 1003.76 1004.01 1004.38 1004.84 1005.34 1005.87 1006.40 1006.89 1007.34 1007.72 1008.05 1008.31 1008.52 1008.69 1008.84 1008.98 1009.12 1009.27 1009.44
1008.96 1009.10 1009.07 1008.92 1008.73 1008.55 1008.45 1008.44 1008.52 1008.67 1008.85 1009.00 1009.05 1008.97 1008.72 1008.30 1007.73 1007.04 1006.28 1005.51 1004.80 1004.19 1003.72 1003.40 1003.26 1003.27 1003.42 1003.70 1004.06 1004.47 1004.91 1005.37 1005.81 1006.23 1006.63 1006.99 1007.32 1007.60 1007.85 1008.07 1008.25 1008.42 1008.56 1008.71
1009.33 1009.43 1009.35 1009.14 1008.86 1008.60 1008.42 1008.34 1008.38 1008.52 1008.71 1008.89 1008.99 1008.97 1008.77 1008.40 1007.85 1007.16 1006.39 1005.60 1004.84 1004.17 1003.64 1003.26 1003.04 1002.98 1003.04 1003.21 1003.46 1003.76 1004.10 1004.46 1004.82 1005.20 1005.58 1005.95 1006.31 1006.65 1006.96 1007.22 1007.44 1007.61 1007.74 1007.85
1009.43 1009.51 1009.40 1009.16 1008.86 1008.58 1008.36 1008.26 1008.29 1008.42 1008.61 1008.80 1008.93 1008.93 1008.77 1008.42 1007.90 1007.24 1006.48 1005.69 1004.93 1004.25 1003.70 1003.29 1003.03 1002.90 1002.88 1002.96 1003.10 1003.28 1003.49 1003.74 1004.01 1004.31 1004.65 1005.01 1005.38 1005.74 1006.08 1006.38 1006.61 1006.78 1006.89 1006.95
1009.19 1009.26 1009.17 1008.95 1008.69 1008.43 1008.24 1008.16 1008.20 1008.34 1008.54 1008.74 1008.87 1008.89 1008.74 1008.42 1007.93 1007.29 1006.56 1005.80 1005.07 1004.42 1003.87 1003.46 1003.18 1003.01 1002.93 1002.91 1002.95 1003.02 1003.11 1003.24 1003.42 1003.64 1003.91 1004.24 1004.59 1004.96 1005.31 1005.61 1005.85 1006.01 1006.10 1006.13
1008.62 1008.70 1008.65 1008.51 1008.32 1008.15 1008.04 1008.03 1008.11 1008.27 1008.48 1008.69 1008.82 1008.84 1008.70 1008.39 1007.92 1007.32 1006.64 1005.93 1005.24 1004.63 1004.12 1003.72 1003.43 1003.23 1003.11 1003.03 1002.98 1002.95 1002.94 1002.97 1003.05 1003.19 1003.40 1003.67 1004.00 1004.35 1004.69 1005.00 1005.23 1005.38 1005.45 1005.45
1007.79 1007.90 1007.92 1007.88 1007.82 1007.77 1007.77 1007.84 1007.99 1008.19 1008.42 1008.63 1008.76 1008.76 1008.62 1008.33 1007.88 1007.31 1006.68 1006.02 1005.39 1004.83 1004.36 1003.99 1003.71 1003.50 1003.35 1003.22 1003.11 1003.00 1002.92 1002.86 1002.86 1002.93 1003.08 1003.30 1003.59 1003.92 1004.25 1004.54 1004.77 1004.92 1004.98 1004.97
1006.85 1007.00 1007.11 1007.19 1007.25 1007.34 1007.46 1007.63 1007.85 1008.09 1008.33 1008.53 1008.65 1008.64 1008.49 1008.20 1007.77 1007.24 1006.65 1006.04 1005.47 1004.96 1004.53 1004.19 1003.93 1003.72 1003.55 1003.40 1003.24 1003.09 1002.95 1002.84 1002.78 1002.79 1002.88 1003.07 1003.32 1003.62 1003.93 1004.21 1004.44 1004.59 1004.66 1004.66
1005.95 1006.15 1006.35 1006.54 1006.73 1006.94 1007.17 1007.42 1007.69 1007.96 1008.20 1008.39 1008.47 1008.45 1008.28 1007.99 1007.58 1007.08 1006.53 1005.98 1005.45 1004.98 1004.60 1004.28 1004.03 1003.83 1003.65 1003.48 1003.31 1003.13 1002.95 1002.80 1002.70 1002.67 1002.73 1002.87 1003.09 1003.36 1003.66 1003.93 1004.17 1004.33 1004.42 1004.45
1005.24 1005.49 1005.76 1006.05 1006.34 1006.63 1006.94 1007.24 1007.53 1007.80 1008.03 1008.18 1008.24 1008.18 1008.00 1007.71 1007.31 1006.84 1006.33 1005.82 1005.33 1004.90 1004.54 1004.24 1004.00 1003.79 1003.61 1003.42 1003.23 1003.03 1002.84 1002.67 1002.54 1002.49 1002.51 1002.62 1002.81 1003.06 1003.33 1003.61 1003.85 1004.04 1004.17 1004.24
1004.81 1005.10 1005.42 1005.77 1006.12 1006.47 1006.80 1007.11 1007.40 1007.64 1007.83 1007.94 1007.96 1007.87 1007.68 1007.38 1007.00 1006.56 1006.08 1005.60 1005.14 1004.73 1004.38 1004.08 1003.83 1003.61 1003.40 1003.20 1002.99 1002.78 1002.57 1002.38 1002.24 1002.15 1002.15 1002.23 1002.39 1002.61 1002.87 1003.15 1003.41 1003.64 1003.82 1003.94
1004.67 1004.98 1005.34 1005.71 1006.08 1006.44 1006.77 1007.06 1007.31 1007.51 1007.64 1007.70 1007.68 1007.57 1007.36 1007.07 1006.71 1006.29 1005.84 1005.39 1004.95 1004.54 1004.18 1003.86 1003.57 1003.32 1003.08 1002.84 1002.61 1002.37 1002.14 1001.94 1001.77 1001.66 1001.63 1001.68 1001.81 1002.01 1002.26 1002.54 1002.82 1003.08 1003.31 1003.50
1004.76 1005.09 1005.45 1005.83 1006.19 1006.53 1006.83 1007.08 1007.28 1007.42 1007.50 1007.51 1007.46 1007.32 1007.11 1006.84 1006.49 1006.10 1005.67 1005.23 1004.80 1004.38 1003.98 1003.62 1003.29 1002.98 1002.69 1002.41 1002.13 1001.86 1001.60 1001.36 1001.17 1001.04 1000.98 1001.00 1001.10 1001.27 1001.51 1001.79 1002.09 1002.39 1002.68 1002.93
1004.99 1005.33 1005.70 1006.07 1006.42 1006.73 1006.99 1007.19 1007.33 1007.42 1007.45 1007.42 1007.33 1007.19 1006.98 1006.72 1006.40 1006.02 1005.61 1005.18 1004.73 1004.28 1003.84 1003.42 1003.02 1002.65 1002.28 1001.94 1001.61 1001.29 1001.00 1000.74 1000.52 1000.36 1000.27 1000.26 1000.33 1000.48 1000.71 1000.99 1001.30 1001.64 1001.97 1002.29
1005.27 1005.63 1006.01 1006.38 1006.72 1007.00 1007.22 1007.38 1007.47 1007.51 1007.50 1007.44 1007.34 1007.19 1006.98 1006.73 1006.42 1006.06 1005.65 1005.20 1004.73 1004.24 1003.75 1003.26 1002.79 1002.34 1001.91 1001.50 1001.11 1000.75 1000.43 1000.14 999.90 999.72 999.61 999.57 999.62 999.76 999.96 1000.24 1000.57 1000.93 1001.30 1001.67
1005.56 1005.95 1006.35 1006.73 1007.06 1007.32 1007.52 1007.64 1007.70 1007.70 1007.66 1007.58 1007.45 1007.29 1007.08 1006.83 1006.52 1006.16 1005.74 1005.27 1004.77 1004.23 1003.68 1003.13 1002.59 1002.07 1001.58 1001.12 1000.69 1000.30 999.96 999.66 999.41 999.22 999.09 999.05 999.08 999.20 999.39 999.66 999.99 1000.36 1000.76 1001.16
1005.84 1006.27 1006.70 1007.10 1007.44 1007.70 1007.87 1007.97 1007.99 1007.96 1007.89 1007.77 1007.62 1007.44 1007.22 1006.95 1006.63 1006.25 1005.81 1005.31 1004.77 1004.19 1003.60 1003.00 1002.41 1001.84 1001.31 1000.83 1000.39 999.99 999.64 999.35 999.11 998.92 998.81 998.76 998.79 998.89 999.08 999.33 999.65 1000.02 1000.42 1000.83
1006.15 1006.63 1007.10 1007.51 1007.85 1008.10 1008.25 1008.31 1008.30 1008.23 1008.11 1007.95 1007.76 1007.54 1007.29 1006.98 1006.63 1006.23 1005.76 1005.24 1004.67 1004.07 1003.45 1002.83 1002.22 1001.65 1001.12 1000.64 1000.22 999.85 999.53 999.26 999.05 998.89 998.79 998.76 998.79 998.89 999.06 999.29 999.59 999.95 1000.33 1000.73
1006.54 1007.05 1007.53 1007.95 1008.27 1008.49 1008.60 1008.62 1008.56 1008.43 1008.25 1008.03 1007.78 1007.51 1007.20 1006.85 1006.46 1006.03 1005.54 1005.00 1004.43 1003.83 1003.22 1002.61 1002.03 1001.50 1001.01 1000.57 1000.20 999.88 999.62 999.41 999.24 999.12 999.05 999.03 999.06 999.15 999.30 999.52 999.79 1000.10 1000.46 1000.83
1007.01 1007.53 1007.99 1008.38 1008.65 1008.82 1008.87 1008.82 1008.68 1008.47 1008.22 1007.93 1007.61 1007.27 1006.90 1006.51 1006.08 1005.62 1005.13 1004.60 1004.05 1003.48 1002.92 1002.37 1001.86 1001.39 1000.98 1000.63 1000.33 1000.09 999.90 999.75 999.63 999.56 999.51 999.51 999.54 999.62 999.76 999.94 1000.17 1000.45 1000.75 1001.08
1007.54 1008.01 1008.42 1008.73 1008.93 1009.00 1008.96 1008.82 1008.60 1008.31 1007.97 1007.60 1007.21 1006.81 1006.39 1005.96 1005.52 1005.06 1004.58 1004.09 1003.58 1003.09 1002.61 1002.15 1001.74 1001.38 1001.07 1000.81 1000.61 1000.46 1000.34 1000.25 1000.18 1000.14 1000.12 1000.12 1000.16 1000.22 1000.33 1000.48 1000.67 1000.90 1001.16 1001.44
1008.02 1008.40 1008.71 1008.91 1009.00 1008.97 1008.83 1008.59 1008.28 1007.91 1007.50 1007.07 1006.63 1006.18 1005.74 1005.30 1004.86 1004.42 1003.99 1003.55 1003.13 1002.73 1002.35 1002.01 1001.72 1001.47 1001.27 1001.12 1001.01 1000.94 1000.88 1000.84 1000.82 1000.80 1000.79 1000.79 1000.81 1000.86 1000.94 1001.06 1001.21 1001.40 1001.62 1001.85
1008.33 1008.59 1008.77 1008.85 1008.82 1008.68 1008.45 1008.13 1007.75 1007.32 1006.87 1006.41 1005.95 1005.50 1005.06 1004.64 1004.24 1003.85 1003.47 1003.12 1002.79 1002.50 1002.23 1002.01 1001.83 1001.69 1001.59 1001.53 1001.50 1001.48 1001.48 1001.47 1001.47 1001.46 1001.44 1001.44 1001.44 1001.47 1001.53 1001.62 1001.74 1001.91 1002.09 1002.29
1008.37 1008.50 1008.54 1008.50 1008.36 1008.14 1007.84 1007.48 1007.07 1006.64 1006.19 1005.75 1005.32 1004.90 1004.50 1004.13 1003.78 1003.46 1003.16 1002.89 1002.66 1002.45 1002.29 1002.16 1002.08 1002.03 1002.00 1002.01 1002.02 1002.04 1002.06 1002.07 1002.06 1002.05 1002.03 1002.01 1002.00 1002.02 1002.06 1002.14 1002.25 1002.39 1002.56 1002.74
1008.08 1008.08 1008.01 1007.88 1007.68 1007.42 1007.11 1006.76 1006.39 1006.00 1005.62 1005.24 1004.87 1004.53 1004.20 1003.90 1003.62 1003.36 1003.13 1002.93 1002.77 1002.63 1002.53 1002.47 1002.44 1002.44 1002.46 1002.49 1002.52 1002.55 1002.58 1002.58 1002.57 1002.55 1002.52 1002.49 1002.48 1002.49 1002.53 1002.60 1002.71 1002.86 1003.02 1003.20
1007.50 1007.41 1007.28 1007.10 1006.89 1006.66 1006.40 1006.12 1005.84 1005.56 1005.28 1005.01 1004.75 1004.50 1004.25 1004.02 1003.80 1003.59 1003.41 1003.24 1003.11 1003.00 1002.92 1002.88 1002.86 1002.87 1002.89 1002.92 1002.95 1002.97 1002.98 1002.98 1002.97 1002.94 1002.91 1002.89 1002.89 1002.91 1002.96 1003.04 1003.16 1003.31 1003.48 1003.65
Thickness
5811 5824 5827 5826 5828 5832 5826 5823 5817 5822 5824 5828 5832 5831 5830 5826 5824 5820 5816 5813 5810 5806 5802 5799 5796 5792 5789 5785 5782 5778 5773 5768 5765 5763 5760 5757 5754 5751 5749 5747 5746 5743 5739 5736
5794 5811 5819 5819 5827 5829 5827 5827 5824 5822 5818 5829 5830 5826 5820 5817 5813 5809 5807 5805 5802 5798 5794 5791 5788 5784 5781 5778 5776 5772 5767 5763 5759 5756 5753 5750 5747 5745 5742 5740 5739 5736 5733 5731
5776 5797 5801 5796 5817 5822 5821 5824 5818 5807 5812 5821 5814 5810 5807 5807 5805 5801 5799 5798 5795 5791 5788 5784 5783 5779 5774 5772 5769 5765 5760 5756 5753 5749 5745 5743 5741 5738 5735 5733 5732 5728 5726 5724
5770 5772 5755 5796 5826 5825 5816 5815 5819 5813 5812 5809 5804 5805 5806 5805 5799 5794 5792 5790 5788 5786 5781 5780 5778 5775 5770 5765 5761 5757 5752 5749 5746 5743 5739 5736 5733 5730 5728 5726 5724 5721 5720 5718
5760 5757 5766 5791 5805 5809 5801 5796 5810 5806 5803 5802 5801 5796 5791 5795 5793 5788 5786 5785 5782 5781 5779 5775 5770 5766 5762 5756 5752 5747 5744 5741 5739 5735 5731 5728 5725 5723 5721 5719 5717 5715 5714 5712
5754 5744 5744 5768 5795 5808 5797 5776 5796 5797 5792 5791 5788 5770 5769 5782 5782 5780 5778 5776 5773 5772 5770 5764 5761 5757 5751 5747 5743 5738 5735 5733 5731 5728 5724 5721 5718 5716 5715 5712 5710 5709 5707 5706
5747 5743 5752 5772 5789 5792 5760 5755 5782 5786 5783 5780 5772 5767 5769 5772 5770 5768 5767 5765 5764 5761 5756 5753 5750 5746 5739 5736 5733 5732 5729 5726 5723 5720 5717 5715 5712 5709 5707 5704 5702 5700 5699 5699
5741 5732 5733 5767 5772 5759 5756 5770 5773 5773 5772 5767 5764 5764 5762 5758 5757 5756 5754 5753 5751 5747 5743 5742 5740 5735 5729 5726 5726 5724 5720 5717 5713 5711 5710 5708 5704 5701 5700 5696 5693 5692 5690 5690
5741 5736 5748 5758 5757 5762 5764 5760 5761 5760 5759 5757 5753 5750 5749 5747 5745 5744 5742 5741 5740 5736 5732 5730 5728 5725 5718 5717 5717 5714 5710 5706 5704 5702 5700 5698 5695 5693 5691 5688 5685 5683 5681 5680
5734 5738 5744 5748 5752 5754 5754 5752 5753 5751 5749 5747 5743 5741 5738 5736 5733 5731 5730 5729 5728 5724 5719 5715 5715 5715 5711 5708 5706 5703 5699 5697 5695 5693 5691 5690 5687 5685 5682 5679 5676 5674 5672 5671
5722 5729 5733 5736 5739 5741 5743 5744 5742 5740 5740 5737 5734 5730 5727 5724 5722 5720 5719 5717 5716 5712 5709 5706 5706 5704 5702 5700 5697 5693 5690 5689 5687 5685 5683 5680 5678 5675 5673 5670 5667 5664 5663 5662
5711 5719 5718 5720 5729 5732 5729 5728 5728 5726 5725 5726 5724 5719 5717 5714 5712 5710 5707 5706 5704 5702 5699 5697 5696 5694 5692 5691 5688 5684 5681 5679 5678 5677 5674 5672 5668 5665 5663 5661 5658 5656 5654 5651
5715 5718 5717 5719 5722 5723 5720 5719 5718 5716 5714 5712 5711 5710 5706 5703 5701 5698 5696 5694 5690 5689 5688 5687 5685 5683 5682 5681 5679 5675 5672 5670 5669 5668 5666 5663 5660 5657 5654 5652 5649 5647 5645 5642
5711 5709 5704 5706 5708 5711 5710 5710 5709 5706 5704 5702 5700 5698 5695 5691 5689 5687 5685 5684 5683 5681 5679 5677 5675 5673 5673 5672 5669 5667 5664 5662 5660 5659 5657 5655 5652 5649 5648 5646 5643 5640 5637 5633
5700 5701 5698 5700 5700 5700 5699 5698 5695 5693 5692 5690 5689 5686 5683 5680 5677 5676 5676 5675 5673 5670 5668 5666 5664 5663 5663 5662 5660 5658 5656 5655 5654 5652 5650 5649 5646 5644 5642 5640 5637 5634 5631 5627
5691 5692 5692 5690 5688 5688 5687 5686 5683 5681 5680 5679 5678 5676 5675 5672 5669 5668 5666 5665 5662 5659 5658 5656 5654 5655 5655 5654 5652 5651 5650 5648 5645 5644 5643 5641 5639 5636 5633 5631 5629 5627 5625 5622
5677 5676 5677 5677 5677 5677 5677 5678 5676 5673 5672 5670 5669 5669 5666 5663 5660 5658 5657 5657 5655 5653 5651 5649 5648 5648 5647 5646 5644 5643 5643 5642 5637 5636 5634 5632 5630 5627 5625 5622 5620 5619 5617 5614
5674 5673 5672 5671 5669 5668 5667 5667 5666 5665 5664 5663 5661 5660 5656 5653 5649 5648 5648 5647 5646 5644 5644 5643 5641 5640 5639 5638 5635 5634 5634 5634 5632 5630 5627 5624 5622 5619 5617 5614 5612 5610 5609 5606
5666 5665 5663 5662 5661 5660 5659 5658 5657 5655 5654 5654 5651 5649 5647 5645 5643 5642 5640 5638 5636 5634 5635 5635 5632 5632 5631 5630 5627 5626 5626 5626 5624 5622 5620 5616 5613 5611 5609 5607 5605 5603 5600 5598
5656 5655 5654 5652 5652 5651 5650 5650 5649 5646 5645 5644 5642 5640 5639 5638 5636 5634 5632 5630 5629 5629 5628 5627 5625 5624 5623 5622 5618 5619 5619 5617 5616 5613 5610 5608 5605 5603 5601 5599 5597 5594 5592 5590
5644 5644 5643 5641 5641 5641 5641 5640 5638 5637 5636 5636 5634 5631 5631 5631 5630 5628 5625 5623 5622 5622 5620 5618 5618 5616 5615 5612 5610 5612 5611 5609 5607 5604 5601 5599 5596 5594 5591 5589 5587 5585 5583 5580
5634 5634 5633 5633 5632 5631 5631 5631 5630 5629 5628 5628 5627 5625 5623 5623 5622 5621 5619 5617 5617 5613 5613 5613 5612 5608 5606 5603 5605 5605 5603 5601 5598 5595 5592 5589 5587 5585 5582 5579 5577 5575 5573 5571
5624 5624 5623 5623 5622 5621 5622 5622 5621 5620 5619 5619 5617 5617 5616 5615 5615 5612 5609 5610 5609 5605 5605 5605 5600 5598 5595 5596 5597 5596 5594 5591 5588 5586 5583 5581 5578 5576 5574 5572 5570 5568 5566 5564
5615 5614 5614 5614 5615 5613 5612 5613 5613 5612 5612 5611 5612 5611 5609 5609 5608 5607 5605 5601 5599 5597 5597 5594 5591 5589 5586 5589 5589 5588 5586 5582 5580 5577 5575 5573 5571 5569 5567 5565 5562 5560 5558 5556
5608 5608 5607 5606 5605 5605 5606 5606 5606 5606 5605 5605 5605 5604 5604 5602 5599 5597 5596 5595 5591 5589 5590 5587 5584 5582 5582 5583 5582 5580 5578 5576 5573 5571 5568 5566 5564 5562 5560 5557 5555 5553 5552 5550
5603 5603 5602 5601 5600 5599 5600 5599 5599 5599 5598 5597 5596 5596 5595 5594 5592 5590 5589 5588 5586 5582 5582 5581 5580 5577 5577 5576 5575 5574 5571 5569 5566 5564 5562 5559 5557 5554 5552 5550 5549 5547 5544 5542
5599 5598 5596 5595 5595 5595 5594 5592 5591 5590 5590 5588 5587 5587 5587 5586 5586 5584 5583 5581 5579 5577 5576 5575 5574 5571 5570 5569 5568 5567 5565 5563 5561 5558 5555 5553 5550 5547 5543 5542 5540 5539 5536 5534